Time,TemperatureF,DewpointF,PressureIn,WindDirection,WindDirectionDegrees,WindSpeedMPH,WindSpeedGustMPH,Humidity,HourlyPrecipIn,Conditions,Clouds,dailyrainin,SoftwareType,DateUTC
2013-09-27 00:03:00,54.7,40.6,29.80,NW,322,2.0,4.0,59,0.00,CLR,CLR,0.00,WeatherDisplay:10.37,2013-09-27 04:03:00,
2013-09-27 00:08:00,54.7,41.1,29.80,NW,315,3.0,6.0,60,0.00,CLR,CLR,0.00,WeatherDisplay:10.37,2013-09-27 04:08:00,
2013-09-27 00:13:00,54.7,41.1,29.80,NW,311,0.0,5.0,60,0.00,CLR,CLR,0.00,WeatherDisplay:10.37,2013-09-27 04:13:00,
2013-09-27 00:18:00,54.7,41.1,29.80,NW,326,0.0,3.0,60,0.00,CLR,CLR,0.00,WeatherDisplay:10.37,2013-09-27 04:18:00,
2013-09-27 00:23:00,54.5,41.3,29.80,NNW,333,2.0,5.0,61,0.00,CLR,CLR,0.00,WeatherDisplay:10.37,2013-09-27 04:23:00,
2013-09-27 00:28:00,54.5,41.3,29.80,NNW,337,3.0,5.0,61,0.00,CLR,CLR,0.00,WeatherDisplay:10.37,2013-09-27 04:28:00,
2013-09-27 00:38:00,54.5,41.3,29.80,NNW,332,2.0,5.0,61,0.00,CLR,CLR,0.00,WeatherDisplay:10.37,2013-09-27 04:38:00,
2013-09-27 00:48:00,54.5,41.3,29.80,NNW,339,2.0,4.0,61,0.00,CLR,CLR,0.00,WeatherDisplay:10.37,2013-09-27 04:48:00,
2013-09-27 00:58:00,54.3,41.1,29.80,NW,315,3.0,6.0,61,0.00,CLR,CLR,0.00,WeatherDisplay:10.37,2013-09-27 04:58:00,
2013-09-27 01:03:00,54.3,41.1,29.80,NW,321,3.0,6.0,61,0.00,CLR,CLR,0.00,WeatherDisplay:10.37,2013-09-27 05:03:00,
2013-09-27 01:08:00,54.3,41.1,29.80,NW,324,3.0,8.0,61,0.00,CLR,CLR,0.00,WeatherDisplay:10.37,2013-09-27 05:08:00,
2013-09-27 01:13:00,54.3,41.1,29.80,NNW,335,1.0,6.0,61,0.00,CLR,CLR,0.00,WeatherDisplay:10.37,2013-09-27 05:13:00,
2013-09-27 01:18:00,54.3,41.1,29.80,NNW,334,3.0,6.0,61,0.00,CLR,CLR,0.00,WeatherDisplay:10.37,2013-09-27 05:18:00,
2013-09-27 01:28:00,54.3,41.1,29.80,NW,324,2.0,6.0,61,0.00,CLR,CLR,0.00,WeatherDisplay:10.37,2013-09-27 05:28:00,
2013-09-27 01:33:00,54.3,41.1,29.80,NNW,333,3.0,6.0,61,0.00,CLR,CLR,0.00,WeatherDisplay:10.37,2013-09-27 05:33:00,
2013-09-27 01:38:00,54.3,41.1,29.80,NNW,330,3.0,5.0,61,0.00,CLR,CLR,0.00,WeatherDisplay:10.37,2013-09-27 05:38:00,
2013-09-27 01:48:00,54.3,41.1,29.80,NW,320,0.0,6.0,61,0.00,CLR,CLR,0.00,WeatherDisplay:10.37,2013-09-27 05:48:00,
2013-09-27 01:58:00,54.3,41.1,29.80,NW,320,2.0,4.0,61,0.00,CLR,CLR,0.00,WeatherDisplay:10.37,2013-09-27 05:58:00,
2013-09-27 02:03:00,54.3,41.1,29.80,NW,325,0.0,3.0,61,0.00,CLR,CLR,0.00,WeatherDisplay:10.37,2013-09-27 06:03:00,
2013-09-27 02:08:00,54.3,41.1,29.80,NW,325,2.0,4.0,61,0.00,CLR,CLR,0.00,WeatherDisplay:10.37,2013-09-27 06:08:00,
2013-09-27 02:18:00,54.1,41.4,29.80,NNW,336,2.0,3.0,62,0.00,CLR,CLR,0.00,WeatherDisplay:10.37,2013-09-27 06:18:00,
2013-09-27 02:28:00,54.1,41.8,29.80,NW,310,0.0,3.0,63,0.00,CLR,CLR,0.00,WeatherDisplay:10.37,2013-09-27 06:28:00,
2013-09-27 02:38:00,54.1,41.8,29.80,NW,321,0.0,3.0,63,0.00,CLR,CLR,0.00,WeatherDisplay:10.37,2013-09-27 06:38:00,
2013-09-27 02:48:00,54.1,42.2,29.80,NW,317,0.0,6.0,64,0.00,CLR,CLR,0.00,WeatherDisplay:10.37,2013-09-27 06:48:00,
2013-09-27 02:58:00,54.1,42.2,29.80,NW,325,0.0,4.0,64,0.00,CLR,CLR,0.00,WeatherDisplay:10.37,2013-09-27 06:58:00,
2013-09-27 03:03:00,54.1,42.2,29.80,NW,319,0.0,5.0,64,0.00,CLR,CLR,0.00,WeatherDisplay:10.37,2013-09-27 07:03:00,
2013-09-27 03:08:00,54.1,42.2,29.80,NW,318,0.0,0.0,64,0.00,CLR,CLR,0.00,WeatherDisplay:10.37,2013-09-27 07:08:00,
2013-09-27 03:18:00,54.1,42.2,29.80,NNW,330,0.0,0.0,64,0.00,CLR,CLR,0.00,WeatherDisplay:10.37,2013-09-27 07:18:00,
2013-09-27 03:28:00,53.8,41.9,29.80,North,358,0.0,0.0,64,0.00,CLR,CLR,0.00,WeatherDisplay:10.37,2013-09-27 07:28:00,
2013-09-27 03:38:00,53.6,42.1,29.80,North,357,0.0,0.0,65,0.00,CLR,CLR,0.00,WeatherDisplay:10.37,2013-09-27 07:38:00,
2013-09-27 03:48:00,53.4,41.9,29.80,North,357,0.0,0.0,65,0.00,CLR,CLR,0.00,WeatherDisplay:10.37,2013-09-27 07:48:00,
2013-09-27 03:58:00,53.2,41.8,29.80,North,357,0.0,0.0,65,0.00,CLR,CLR,0.00,WeatherDisplay:10.37,2013-09-27 07:58:00,
2013-09-27 04:03:00,53.1,42.0,29.80,North,357,0.0,0.0,66,0.00,CLR,CLR,0.00,WeatherDisplay:10.37,2013-09-27 08:03:00,
2013-09-27 04:08:00,53.1,42.0,29.80,North,357,0.0,0.0,66,0.00,CLR,CLR,0.00,WeatherDisplay:10.37,2013-09-27 08:08:00,
2013-09-27 04:18:00,52.9,42.2,29.80,North,357,0.0,0.0,67,0.00,CLR,CLR,0.00,WeatherDisplay:10.37,2013-09-27 08:18:00,
2013-09-27 04:28:00,52.9,42.2,29.80,North,357,0.0,0.0,67,0.00,CLR,CLR,0.00,WeatherDisplay:10.37,2013-09-27 08:28:00,
2013-09-27 04:38:00,52.7,42.4,29.80,North,357,0.0,0.0,68,0.00,CLR,CLR,0.00,WeatherDisplay:10.37,2013-09-27 08:38:00,
2013-09-27 04:48:00,52.7,42.8,29.83,North,357,0.0,0.0,69,0.00,CLR,CLR,0.00,WeatherDisplay:10.37,2013-09-27 08:48:00,
2013-09-27 04:58:00,52.7,42.8,29.83,North,357,0.0,0.0,69,0.00,CLR,CLR,0.00,WeatherDisplay:10.37,2013-09-27 08:58:00,
2013-09-27 05:03:00,52.5,43.0,29.83,North,357,0.0,0.0,70,0.00,CLR,CLR,0.00,WeatherDisplay:10.37,2013-09-27 09:03:00,
2013-09-27 05:08:00,52.5,43.0,29.83,North,357,0.0,0.0,70,0.00,CLR,CLR,0.00,WeatherDisplay:10.37,2013-09-27 09:08:00,
2013-09-27 05:18:00,52.5,43.0,29.83,North,357,0.0,0.0,70,0.00,CLR,CLR,0.00,WeatherDisplay:10.37,2013-09-27 09:18:00,
2013-09-27 05:28:00,52.5,43.4,29.83,North,357,0.0,0.0,71,0.00,CLR,CLR,0.00,WeatherDisplay:10.37,2013-09-27 09:28:00,
2013-09-27 05:38:00,52.5,43.4,29.83,North,9,0.0,0.0,71,0.00,CLR,CLR,0.00,WeatherDisplay:10.37,2013-09-27 09:38:00,
2013-09-27 05:48:00,52.7,43.9,29.83,NNE,21,0.0,0.0,72,0.00,CLR,CLR,0.00,WeatherDisplay:10.37,2013-09-27 09:48:00,
2013-09-27 05:58:00,52.7,43.9,29.83,North,10,0.0,0.0,72,0.00,CLR,CLR,0.00,WeatherDisplay:10.37,2013-09-27 09:58:00,
2013-09-27 06:03:00,52.9,44.1,29.83,North,354,0.0,0.0,72,0.00,CLR,CLR,0.00,WeatherDisplay:10.37,2013-09-27 10:03:00,
2013-09-27 06:08:00,52.9,44.1,29.83,NNW,348,0.0,3.0,72,0.00,CLR,CLR,0.00,WeatherDisplay:10.37,2013-09-27 10:08:00,
2013-09-27 06:18:00,52.9,44.5,29.83,NNW,340,0.0,0.0,73,0.00,CLR,CLR,0.00,WeatherDisplay:10.37,2013-09-27 10:18:00,
2013-09-27 06:28:00,53.1,44.6,29.85,NNE,15,0.0,2.0,73,0.00,CLR,CLR,0.00,WeatherDisplay:10.37,2013-09-27 10:28:00,
2013-09-27 06:38:00,53.2,44.8,29.85,NE,35,0.0,0.0,73,0.00,CLR,CLR,0.00,WeatherDisplay:10.37,2013-09-27 10:38:00,
2013-09-27 06:48:00,53.6,45.5,29.85,North,355,0.0,4.0,74,0.00,CLR,CLR,0.00,WeatherDisplay:10.37,2013-09-27 10:48:00,
2013-09-27 06:58:00,54.0,45.5,29.85,NW,325,0.0,6.0,73,0.00,CLR,CLR,0.00,WeatherDisplay:10.37,2013-09-27 10:58:00,
2013-09-27 07:03:00,54.1,45.3,29.85,NNW,329,0.0,6.0,72,0.00,CLR,CLR,0.00,WeatherDisplay:10.37,2013-09-27 11:03:00,
2013-09-27 07:08:00,54.1,44.9,29.85,NNW,346,3.0,8.0,71,0.00,CLR,CLR,0.00,WeatherDisplay:10.37,2013-09-27 11:08:00,
2013-09-27 07:18:00,54.1,44.2,29.85,North,351,3.0,6.0,69,0.00,CLR,CLR,0.00,WeatherDisplay:10.37,2013-09-27 11:18:00,
2013-09-27 07:28:00,54.3,44.0,29.85,NNW,333,3.0,6.0,68,0.00,CLR,CLR,0.00,WeatherDisplay:10.37,2013-09-27 11:28:00,
2013-09-27 07:38:00,54.5,43.8,29.85,NNW,340,3.0,5.0,67,0.00,CLR,CLR,0.00,WeatherDisplay:10.37,2013-09-27 11:38:00,
2013-09-27 07:48:00,54.7,43.5,29.85,NNW,338,3.0,6.0,66,0.00,CLR,CLR,0.00,WeatherDisplay:10.37,2013-09-27 11:48:00,
2013-09-27 07:53:00,54.9,43.7,29.85,NNW,337,3.0,5.0,66,0.00,CLR,CLR,0.00,WeatherDisplay:10.37,2013-09-27 11:53:00,
2013-09-27 07:58:00,55.0,43.9,29.85,NW,315,0.0,6.0,66,0.00,CLR,CLR,0.00,WeatherDisplay:10.37,2013-09-27 11:58:00,
2013-09-27 08:03:00,55.2,43.7,29.85,NW,312,0.0,6.0,65,0.00,CLR,CLR,0.00,WeatherDisplay:10.37,2013-09-27 12:03:00,
2013-09-27 08:08:00,55.4,43.8,29.85,NNW,334,0.0,4.0,65,0.00,CLR,CLR,0.00,WeatherDisplay:10.37,2013-09-27 12:08:00,
2013-09-27 08:18:00,55.6,43.6,29.85,NNW,341,2.0,6.0,64,0.00,CLR,CLR,0.00,WeatherDisplay:10.37,2013-09-27 12:18:00,
2013-09-27 08:28:00,55.9,43.1,29.88,North,352,3.0,6.0,62,0.00,CLR,CLR,0.00,WeatherDisplay:10.37,2013-09-27 12:28:00,
2013-09-27 08:38:00,56.1,42.8,29.88,NNW,347,3.0,6.0,61,0.00,CLR,CLR,0.00,WeatherDisplay:10.37,2013-09-27 12:38:00,
2013-09-27 08:48:00,56.7,42.5,29.88,NNW,344,5.0,6.0,59,0.00,CLR,CLR,0.00,WeatherDisplay:10.37,2013-09-27 12:48:00,
2013-09-27 08:58:00,57.0,41.5,29.88,North,352,6.0,6.0,56,0.00,CLR,CLR,0.00,WeatherDisplay:10.37,2013-09-27 12:58:00,
2013-09-27 09:03:00,57.2,41.6,29.88,NNW,345,3.0,6.0,56,0.00,CLR,CLR,0.00,WeatherDisplay:10.37,2013-09-27 13:03:00,
2013-09-27 09:08:00,57.4,41.3,29.88,NNW,337,6.0,8.0,55,0.00,CLR,CLR,0.00,WeatherDisplay:10.37,2013-09-27 13:08:00,
2013-09-27 09:18:00,57.7,41.2,29.88,NNW,339,3.0,6.0,54,0.00,CLR,CLR,0.00,WeatherDisplay:10.37,2013-09-27 13:18:00,
2013-09-27 09:28:00,58.3,40.7,29.88,NNW,335,3.0,9.0,52,0.00,CLR,CLR,0.00,WeatherDisplay:10.37,2013-09-27 13:28:00,
2013-09-27 09:38:00,59.0,40.3,29.88,North,356,6.0,9.0,50,0.00,CLR,CLR,0.00,WeatherDisplay:10.37,2013-09-27 13:38:00,
2013-09-27 09:48:00,59.4,40.2,29.88,NNW,348,5.0,7.0,49,0.00,CLR,CLR,0.00,WeatherDisplay:10.37,2013-09-27 13:48:00,
2013-09-27 09:58:00,59.6,39.9,29.88,North,358,6.0,8.0,48,0.00,CLR,CLR,0.00,WeatherDisplay:10.37,2013-09-27 13:58:00,
2013-09-27 10:03:00,59.9,40.1,29.88,North,354,5.0,8.0,48,0.00,CLR,CLR,0.00,WeatherDisplay:10.37,2013-09-27 14:03:00,
2013-09-27 10:08:00,59.9,39.6,29.88,NNW,344,6.0,9.0,47,0.00,CLR,CLR,0.00,WeatherDisplay:10.37,2013-09-27 14:08:00,
2013-09-27 10:18:00,60.1,40.3,29.88,NNW,346,3.0,8.0,48,0.00,CLR,CLR,0.00,WeatherDisplay:10.37,2013-09-27 14:18:00,
2013-09-27 10:28:00,60.6,40.3,29.88,NNW,345,5.0,8.0,47,0.00,CLR,CLR,0.00,WeatherDisplay:10.37,2013-09-27 14:28:00,
2013-09-27 10:38:00,60.8,39.9,29.88,NE,36,1.0,6.0,46,0.00,CLR,CLR,0.00,WeatherDisplay:10.37,2013-09-27 14:38:00,
2013-09-27 10:48:00,60.8,40.4,29.88,North,1,5.0,6.0,47,0.00,CLR,CLR,0.00,WeatherDisplay:10.37,2013-09-27 14:48:00,
2013-09-27 10:58:00,60.8,39.3,29.88,North,351,5.0,8.0,45,0.00,CLR,CLR,0.00,WeatherDisplay:10.37,2013-09-27 14:58:00,
2013-09-27 11:03:00,60.8,39.9,29.88,NNE,20,6.0,8.0,46,0.00,CLR,CLR,0.00,WeatherDisplay:10.37,2013-09-27 15:03:00,
2013-09-27 11:08:00,61.1,39.6,29.88,NNE,13,6.0,9.0,45,0.00,CLR,CLR,0.00,WeatherDisplay:10.37,2013-09-27 15:08:00,
2013-09-27 11:18:00,61.7,39.0,29.88,NNW,348,3.0,6.0,43,0.00,CLR,CLR,0.00,WeatherDisplay:10.37,2013-09-27 15:18:00,
2013-09-27 11:28:00,62.1,39.9,29.88,North,1,5.0,6.0,44,0.00,CLR,CLR,0.00,WeatherDisplay:10.37,2013-09-27 15:28:00,
2013-09-27 11:38:00,62.6,38.6,29.88,NNW,345,5.0,9.0,41,0.00,CLR,CLR,0.00,WeatherDisplay:10.37,2013-09-27 15:38:00,
2013-09-27 11:48:00,62.6,38.6,29.88,NNE,18,3.0,8.0,41,0.00,CLR,CLR,0.00,WeatherDisplay:10.37,2013-09-27 15:48:00,
2013-09-27 11:58:00,62.8,39.3,29.88,NNE,15,6.0,8.0,42,0.00,CLR,CLR,0.00,WeatherDisplay:10.37,2013-09-27 15:58:00,
2013-09-27 12:03:00,63.0,38.9,29.88,NNE,24,3.0,9.0,41,0.00,CLR,CLR,0.00,WeatherDisplay:10.37,2013-09-27 16:03:00,
2013-09-27 12:08:00,63.1,39.0,29.88,NNW,329,6.0,9.0,41,0.00,CLR,CLR,0.00,WeatherDisplay:10.37,2013-09-27 16:08:00,
2013-09-27 12:18:00,63.3,39.2,29.88,North,1,2.0,8.0,41,0.00,CLR,CLR,0.00,WeatherDisplay:10.37,2013-09-27 16:18:00,
2013-09-27 12:28:00,63.5,39.4,29.88,North,2,6.0,12.0,41,0.00,CLR,CLR,0.00,WeatherDisplay:10.37,2013-09-27 16:28:00,
2013-09-27 12:38:00,63.3,39.2,29.88,NNW,330,3.0,6.0,41,0.00,CLR,CLR,0.00,WeatherDisplay:10.37,2013-09-27 16:38:00,
2013-09-27 12:48:00,63.8,38.4,29.88,NW,310,3.0,6.0,39,0.00,CLR,CLR,0.00,WeatherDisplay:10.37,2013-09-27 16:48:00,
2013-09-27 12:58:00,64.2,38.1,29.85,NNE,20,7.0,10.0,38,0.00,CLR,CLR,0.00,WeatherDisplay:10.37,2013-09-27 16:58:00,
2013-09-27 13:03:00,64.6,38.4,29.85,North,3,5.0,6.0,38,0.00,CLR,CLR,0.00,WeatherDisplay:10.37,2013-09-27 17:03:00,
2013-09-27 13:08:00,64.9,37.3,29.85,NNW,347,5.0,8.0,36,0.00,CLR,CLR,0.00,WeatherDisplay:10.37,2013-09-27 17:08:00,
2013-09-27 13:18:00,65.3,37.6,29.85,NNE,19,6.0,9.0,36,0.00,CLR,CLR,0.00,WeatherDisplay:10.37,2013-09-27 17:18:00,
2013-09-27 13:28:00,64.9,37.3,29.85,NNE,13,5.0,8.0,36,0.00,CLR,CLR,0.00,WeatherDisplay:10.37,2013-09-27 17:28:00,
2013-09-27 13:38:00,65.3,38.4,29.85,NNE,14,5.0,8.0,37,0.00,CLR,CLR,0.00,WeatherDisplay:10.37,2013-09-27 17:38:00,
2013-09-27 13:48:00,65.3,38.3,29.85,NE,54,3.0,6.0,37,0.00,CLR,CLR,0.00,WeatherDisplay:10.37,2013-09-27 17:48:00,
2013-09-27 13:58:00,65.3,38.3,29.85,NNE,28,2.0,4.0,37,0.00,CLR,CLR,0.00,WeatherDisplay:10.37,2013-09-27 17:58:00,
2013-09-27 14:03:00,65.3,37.6,29.85,NNE,15,0.0,6.0,36,0.00,CLR,CLR,0.00,WeatherDisplay:10.37,2013-09-27 18:03:00,
2013-09-27 14:08:00,65.7,38.0,29.85,NNE,14,2.0,6.0,36,0.00,CLR,CLR,0.00,WeatherDisplay:10.37,2013-09-27 18:08:00,
2013-09-27 14:18:00,65.5,37.8,29.85,NNE,26,3.0,6.0,36,0.00,CLR,CLR,0.00,WeatherDisplay:10.37,2013-09-27 18:18:00,
2013-09-27 14:28:00,65.5,37.8,29.85,NE,35,1.0,6.0,36,0.00,CLR,CLR,0.00,WeatherDisplay:10.37,2013-09-27 18:28:00,
2013-09-27 14:38:00,65.5,37.1,29.85,NNW,344,6.0,8.0,35,0.00,CLR,CLR,0.00,WeatherDisplay:10.37,2013-09-27 18:38:00,
2013-09-27 14:48:00,66.0,36.8,29.85,NNE,13,3.0,6.0,34,0.00,CLR,CLR,0.00,WeatherDisplay:10.37,2013-09-27 18:48:00,
2013-09-27 14:58:00,66.0,37.6,29.85,North,11,5.0,6.0,35,0.00,CLR,CLR,0.00,WeatherDisplay:10.37,2013-09-27 18:58:00,
2013-09-27 15:03:00,66.0,36.8,29.85,NNE,27,2.0,6.0,34,0.00,CLR,CLR,0.00,WeatherDisplay:10.37,2013-09-27 19:03:00,
2013-09-27 15:08:00,66.2,37.0,29.85,NE,40,6.0,6.0,34,0.00,CLR,CLR,0.00,WeatherDisplay:10.37,2013-09-27 19:08:00,
2013-09-27 15:18:00,66.2,37.7,29.83,NNW,336,0.0,6.0,35,0.00,CLR,CLR,0.00,WeatherDisplay:10.37,2013-09-27 19:18:00,
2013-09-27 15:28:00,66.0,37.6,29.83,North,3,3.0,6.0,35,0.00,CLR,CLR,0.00,WeatherDisplay:10.37,2013-09-27 19:28:00,
2013-09-27 15:38:00,66.4,36.4,29.83,North,9,3.0,6.0,33,0.00,CLR,CLR,0.00,WeatherDisplay:10.37,2013-09-27 19:38:00,
2013-09-27 15:48:00,67.3,36.4,29.83,North,1,2.0,6.0,32,0.00,CLR,CLR,0.00,WeatherDisplay:10.37,2013-09-27 19:48:00,
2013-09-27 15:58:00,67.5,36.6,29.83,NNE,28,3.0,7.0,32,0.00,CLR,CLR,0.00,WeatherDisplay:10.37,2013-09-27 19:58:00,
2013-09-27 16:03:00,67.3,36.4,29.83,NNE,23,3.0,5.0,32,0.00,CLR,CLR,0.00,WeatherDisplay:10.37,2013-09-27 20:03:00,
2013-09-27 16:08:00,67.5,36.6,29.83,North,5,0.0,6.0,32,0.00,CLR,CLR,0.00,WeatherDisplay:10.37,2013-09-27 20:08:00,
2013-09-27 16:18:00,67.6,36.7,29.83,North,1,3.0,6.0,32,0.00,CLR,CLR,0.00,WeatherDisplay:10.37,2013-09-27 20:18:00,
2013-09-27 16:28:00,67.8,36.9,29.83,NE,45,0.0,8.0,32,0.00,CLR,CLR,0.00,WeatherDisplay:10.37,2013-09-27 20:28:00,
2013-09-27 16:38:00,67.6,36.7,29.83,NE,46,3.0,6.0,32,0.00,CLR,CLR,0.00,WeatherDisplay:10.37,2013-09-27 20:38:00,
2013-09-27 16:48:00,67.7,36.7,29.83,North,355,0.0,4.0,32,0.00,CLR,CLR,0.00,WeatherDisplay:10.37,2013-09-27 20:48:00,
2013-09-27 16:58:00,67.8,36.9,29.83,North,349,2.0,4.0,32,0.00,CLR,CLR,0.00,WeatherDisplay:10.37,2013-09-27 20:58:00,
2013-09-27 17:03:00,68.0,37.0,29.83,NW,323,5.0,6.0,32,0.00,CLR,CLR,0.00,WeatherDisplay:10.37,2013-09-27 21:03:00,
2013-09-27 17:08:00,68.0,37.0,29.83,NNW,341,0.0,4.0,32,0.00,CLR,CLR,0.00,WeatherDisplay:10.37,2013-09-27 21:08:00,
2013-09-27 17:18:00,67.5,36.6,29.83,NE,36,0.0,4.0,32,0.00,CLR,CLR,0.00,WeatherDisplay:10.37,2013-09-27 21:18:00,
2013-09-27 17:28:00,67.1,37.1,29.83,North,9,2.0,3.0,33,0.00,CLR,CLR,0.00,WeatherDisplay:10.37,2013-09-27 21:28:00,
2013-09-27 17:38:00,66.6,37.3,29.83,NNE,24,0.0,3.0,34,0.00,CLR,CLR,0.00,WeatherDisplay:10.37,2013-09-27 21:38:00,
2013-09-27 17:48:00,65.7,37.3,29.83,North,353,0.0,0.0,35,0.00,CLR,CLR,0.00,WeatherDisplay:10.37,2013-09-27 21:48:00,
2013-09-27 17:58:00,64.6,37.0,29.85,North,353,0.0,0.0,36,0.00,CLR,CLR,0.00,WeatherDisplay:10.37,2013-09-27 21:58:00,
2013-09-27 18:03:00,64.0,36.5,29.85,North,353,0.0,0.0,36,0.00,CLR,CLR,0.00,WeatherDisplay:10.37,2013-09-27 22:03:00,
2013-09-27 18:08:00,63.3,36.6,29.85,North,353,0.0,0.0,37,0.00,CLR,CLR,0.00,WeatherDisplay:10.37,2013-09-27 22:08:00,
2013-09-27 18:18:00,62.2,36.9,29.83,North,353,0.0,0.0,39,0.00,CLR,CLR,0.00,WeatherDisplay:10.37,2013-09-27 22:18:00,
2013-09-27 18:28:00,60.8,38.1,29.85,North,353,0.0,0.0,43,0.00,CLR,CLR,0.00,WeatherDisplay:10.37,2013-09-27 22:28:00,
2013-09-27 18:38:00,59.6,39.9,29.85,North,353,0.0,0.0,48,0.00,CLR,CLR,0.00,WeatherDisplay:10.37,2013-09-27 22:38:00,
2013-09-27 18:48:00,58.6,38.9,29.85,North,353,0.0,0.0,48,0.00,CLR,CLR,0.00,WeatherDisplay:10.37,2013-09-27 22:48:00,
2013-09-27 18:58:00,57.6,39.6,29.85,North,353,0.0,0.0,51,0.00,CLR,CLR,0.00,WeatherDisplay:10.37,2013-09-27 22:58:00,
2013-09-27 19:03:00,57.1,39.6,29.85,North,353,0.0,0.0,52,0.00,CLR,CLR,0.00,WeatherDisplay:10.37,2013-09-27 23:03:00,
2013-09-27 19:08:00,56.7,39.2,29.85,North,353,0.0,0.0,52,0.00,CLR,CLR,0.00,WeatherDisplay:10.37,2013-09-27 23:08:00,
2013-09-27 19:18:00,56.1,40.1,29.85,North,353,0.0,0.0,55,0.00,CLR,CLR,0.00,WeatherDisplay:10.37,2013-09-27 23:18:00,
2013-09-27 19:28:00,55.4,40.4,29.85,North,353,0.0,0.0,57,0.00,CLR,CLR,0.00,WeatherDisplay:10.37,2013-09-27 23:28:00,
2013-09-27 19:38:00,55.0,41.4,29.85,North,353,0.0,0.0,60,0.00,CLR,CLR,0.00,WeatherDisplay:10.37,2013-09-27 23:38:00,
2013-09-27 19:48:00,54.6,41.8,29.85,North,353,0.0,0.0,62,0.00,CLR,CLR,0.00,WeatherDisplay:10.37,2013-09-27 23:48:00,
2013-09-27 19:58:00,54.1,42.2,29.85,North,353,0.0,0.0,64,0.00,CLR,CLR,0.00,WeatherDisplay:10.37,2013-09-27 23:58:00,
2013-09-27 20:03:00,54.0,42.1,29.85,North,353,0.0,0.0,64,0.00,CLR,CLR,0.00,WeatherDisplay:10.37,2013-09-28 00:03:00,
2013-09-27 20:08:00,53.8,42.3,29.85,North,353,0.0,0.0,65,0.00,CLR,CLR,0.00,WeatherDisplay:10.37,2013-09-28 00:08:00,
2013-09-27 20:18:00,53.4,42.3,29.85,North,353,0.0,0.0,66,0.00,CLR,CLR,0.00,WeatherDisplay:10.37,2013-09-28 00:18:00,
2013-09-27 20:28:00,53.1,42.4,29.85,North,353,0.0,0.0,67,0.00,CLR,CLR,0.00,WeatherDisplay:10.37,2013-09-28 00:28:00,
2013-09-27 20:38:00,52.7,42.4,29.85,North,353,0.0,0.0,68,0.00,CLR,CLR,0.00,WeatherDisplay:10.37,2013-09-28 00:38:00,
2013-09-27 20:48:00,52.3,42.5,29.88,North,353,0.0,0.0,69,0.00,CLR,CLR,0.00,WeatherDisplay:10.37,2013-09-28 00:48:00,
2013-09-27 20:58:00,52.0,42.5,29.88,North,353,0.0,0.0,70,0.00,CLR,CLR,0.00,WeatherDisplay:10.37,2013-09-28 00:58:00,
2013-09-27 21:03:00,52.0,42.5,29.88,North,353,0.0,0.0,70,0.00,CLR,CLR,0.00,WeatherDisplay:10.37,2013-09-28 01:03:00,
2013-09-27 21:08:00,51.8,42.3,29.88,North,353,0.0,0.0,70,0.00,CLR,CLR,0.00,WeatherDisplay:10.37,2013-09-28 01:08:00,
2013-09-27 21:18:00,51.6,42.5,29.88,North,353,0.0,0.0,71,0.00,CLR,CLR,0.00,WeatherDisplay:10.37,2013-09-28 01:18:00,
2013-09-27 21:28:00,51.3,42.5,29.88,North,353,0.0,0.0,72,0.00,CLR,CLR,0.00,WeatherDisplay:10.37,2013-09-28 01:28:00,
2013-09-27 21:38:00,51.1,42.4,29.88,North,353,0.0,0.0,72,0.00,CLR,CLR,0.00,WeatherDisplay:10.37,2013-09-28 01:38:00,
2013-09-27 21:48:00,50.9,42.6,29.88,North,353,0.0,0.0,73,0.00,CLR,CLR,0.00,WeatherDisplay:10.37,2013-09-28 01:48:00,
2013-09-27 21:58:00,50.6,42.6,29.88,North,353,0.0,0.0,74,0.00,CLR,CLR,0.00,WeatherDisplay:10.37,2013-09-28 01:58:00,
2013-09-27 22:03:00,50.5,42.6,29.88,North,353,0.0,0.0,74,0.00,CLR,CLR,0.00,WeatherDisplay:10.37,2013-09-28 02:03:00,
2013-09-27 22:08:00,50.4,42.4,29.88,North,353,0.0,0.0,74,0.00,CLR,CLR,0.00,WeatherDisplay:10.37,2013-09-28 02:08:00,
2013-09-27 22:18:00,50.4,42.4,29.88,North,353,0.0,0.0,74,0.00,CLR,CLR,0.00,WeatherDisplay:10.37,2013-09-28 02:18:00,
2013-09-27 22:28:00,50.2,42.6,29.88,North,353,0.0,0.0,75,0.00,CLR,CLR,0.00,WeatherDisplay:10.37,2013-09-28 02:28:00,
2013-09-27 22:38:00,49.8,42.2,29.88,North,353,0.0,0.0,75,0.00,CLR,CLR,0.00,WeatherDisplay:10.37,2013-09-28 02:38:00,
2013-09-27 22:48:00,50.0,42.7,29.88,North,353,0.0,0.0,76,0.00,CLR,CLR,0.00,WeatherDisplay:10.37,2013-09-28 02:48:00,
2013-09-27 22:53:00,49.8,42.6,29.88,North,353,0.0,0.0,76,0.00,CLR,CLR,0.00,WeatherDisplay:10.37,2013-09-28 02:53:00,
2013-09-27 22:58:00,49.8,42.6,29.88,North,353,0.0,0.0,76,0.00,CLR,CLR,0.00,WeatherDisplay:10.37,2013-09-28 02:58:00,
2013-09-27 23:08:00,49.6,42.4,29.88,North,353,0.0,0.0,76,0.00,CLR,CLR,0.00,WeatherDisplay:10.37,2013-09-28 03:08:00,
2013-09-27 23:18:00,49.6,42.7,29.88,North,353,0.0,0.0,77,0.00,CLR,CLR,0.00,WeatherDisplay:10.37,2013-09-28 03:18:00,
2013-09-27 23:28:00,49.8,42.9,29.91,North,353,0.0,0.0,77,0.00,CLR,CLR,0.00,WeatherDisplay:10.37,2013-09-28 03:28:00,
2013-09-27 23:38:00,49.6,42.7,29.91,North,353,0.0,0.0,77,0.00,CLR,CLR,0.00,WeatherDisplay:10.37,2013-09-28 03:38:00,
2013-09-27 23:48:00,49.5,42.9,29.91,North,353,0.0,0.0,78,0.00,CLR,CLR,0.00,WeatherDisplay:10.37,2013-09-28 03:48:00,
2013-09-27 23:58:00,49.6,43.1,29.91,North,353,0.0,0.0,78,0.00,CLR,CLR,0.00,WeatherDisplay:10.37,2013-09-28 03:58:00,